Flag for Austria Weather past 2 weeks in Kapfenberg, Styria, Austria

Now
25 °F

Partly cloudy.


Feels Like: 25 °F
Forecast: 16 / 28 °F
Wind: 1 mph from North

Location: Zeltweg

Current Time: Dec 27, 2014 at 8:26:53 PM

Latest Report: Dec 27, 2014 at 7:50 PM


Visibility: 6 mi

Pressure: 29.56 "Hg

Humidity: 100%

Dew point: 25 °F

Location of KapfenbergLocation

Historic Weather in Kapfenberg — Graph

°F

Kapfenberg temperature yesterday

Maximum temperature yesterday: 37 °F (at 9:50 AM)
Minimum temperature yesterday: 27 °F (at 7:50 AM)
Average temperature yesterday: 33 °F

Past Weeks' High & Low Weather Summary

 TemperatureHumidityPressure
High55 °F (Dec 19, 2:50 PM)100% (Dec 14, 9:20 AM)30.39 "Hg (Dec 14, 9:20 AM)
Low14 °F (Dec 27, 7:50 AM)38% (Dec 20, 12:50 PM)29.56 "Hg (Dec 27, 4:50 PM)
Average33 °F84%30.07 "Hg
* Reported Dec 12 6:50 PM — Dec 27 6:50 PM, Kapfenberg, Weather by CustomWeather, © 2014

Note: Actual official high and low records may vary slightly from our data, if they occured in-between our weather recording intervals... More about our weather records

Advertising

Kapfenberg weather history for previous 24 hours

 ConditionsComfort  
Time TempWeatherWind HumidityBarometerVisibility
6:50 PM
Dec 27
27 °FLight snow. Partly cloudy.2 mph93%29.56 "Hg6 mi
5:50 PM27 °FPassing clouds.3 mph86%29.56 "Hg12 mi
4:50 PM27 °FPartly cloudy.2 mph80%29.56 "Hg12 mi
3:50 PM28 °FPartly sunny.5 mph74%29.59 "Hg16 mi
2:50 PM28 °FPartly sunny.5 mph74%29.62 "Hg19 mi
1:50 PM27 °FPartly sunny.2 mph74%29.65 "Hg19 mi
12:50 PM27 °FPartly sunny.3 mph74%29.68 "Hg19 mi
11:50 AM25 °FBroken clouds.5 mph80%29.74 "Hg22 mi
10:50 AM25 °FBroken clouds.2 mph80%29.80 "Hg22 mi
9:50 AM23 °FBroken clouds.2 mph86%29.86 "Hg22 mi
8:50 AM19 °FPartly sunny.1 mph86%29.92 "Hg22 mi
7:50 AM14 °FPartly sunny.5 mph92%29.95 "Hg19 mi
6:50 AM16 °FPassing clouds.5 mph86%29.98 "Hg9 mi
5:50 AM18 °FPassing clouds.2 mph86%30.01 "Hg6 mi
4:50 AM16 °FPassing clouds.3 mph86%30.04 "Hg6 mi
9:50 PM
Dec 26
28 °FPassing clouds.9 mph69%30.15 "Hg6 mi
8:50 PM28 °FPassing clouds.13 mph69%30.15 "Hg6 mi
Weather by CustomWeather, © 2014

See weather overviewHow to use our weather pages